Location: Bethune
(34.4150°N, 80.3490°W)
Time: 03:27:09
(UTC-04:00)

ISS - Visible Passes

Search period start: 26 April 2018 00:00
Search period end: 06 May 2018 00:00
Orbit: 403 x 406 km, 51.6° (Epoch: 26 April)

Date Brightness Start Highest point End Pass type
(mag) Time Alt. Az. Time Alt. Az. Time Alt. Az.
29 Apr -1.7 05:36:16 10° S 05:38:49 21° SE 05:41:22 10° ENE visible
30 Apr -0.9 04:46:23 10° SE 04:46:42 10° SE 04:47:02 10° ESE visible
01 May -3.6 05:28:24 20° SSW 05:30:29 64° SE 05:33:42 10° NE visible
02 May -2.3 04:38:19 28° SE 04:38:19 28° SE 04:41:06 10° ENE visible
03 May -3.2 05:20:47 25° W 05:22:15 43° NW 05:25:23 10° NE visible
04 May -3.2 04:30:30 55° NE 04:30:30 55° NE 04:33:09 10° NE visible
05 May -0.6 03:40:09 13° ENE 03:40:09 13° ENE 03:40:38 10° ENE visible
05 May -1.8 05:12:48 15° WNW 05:14:09 19° NNW 05:16:36 10° NNE visible
